This is the latest recevied weather packets stored in our database for station/object YO8PIC-4. If no packets are shown the sender has not sent any weather packets the latest 10 day(s).
| Time | Temp. | Humidity | Pressure | Rain* | Wind** | Luminosity | Snow |
|---|---|---|---|---|---|---|---|
| 1777621396 | 27.22° C | 41% | 1023.4 hPa | - | - | - | - |
| 1777620796 | 26.67° C | 41% | 1023.4 hPa | - | - | - | - |
| 1777620195 | 27.22° C | 39% | 1023.5 hPa | - | - | - | - |
| 1777619595 | 27.22° C | 40% | 1023.5 hPa | - | - | - | - |
| 1777618995 | 26.67° C | 40% | 1023.6 hPa | - | - | - | - |
| 1777618395 | 27.22° C | 39% | 1023.6 hPa | - | - | - | - |
| 1777617795 | 26.11° C | 41% | 1023.6 hPa | - | - | - | - |
| 1777617195 | 26.11° C | 40% | 1023.6 hPa | - | - | - | - |
| 1777616595 | 26.11° C | 40% | 1023.7 hPa | - | - | - | - |
| 1777615994 | 24.44° C | 41% | 1023.7 hPa | - | - | - | - |
| 1777615394 | 23.33° C | 38% | 1023.6 hPa | - | - | - | - |
| 1777614794 | 22.22° C | 36% | 1023.6 hPa | - | - | - | - |
| 1777614194 | 22.22° C | 37% | 1023.6 hPa | - | - | - | - |
| 1777613593 | 21.67° C | 38% | 1023.6 hPa | - | - | - | - |
| 1777612993 | 22.22° C | 40% | 1023.5 hPa | - | - | - | - |
| 1777612393 | 22.78° C | 52% | 1023.4 hPa | - | - | - | - |
| 1777611793 | 22.78° C | 52% | 1023.4 hPa | - | - | - | - |
| 1777611193 | 22.78° C | 52% | 1023.4 hPa | - | - | - | - |
| 1777610592 | 22.78° C | 52% | 1023.5 hPa | - | - | - | - |
| 1777609992 | 22.78° C | 52% | 1023.4 hPa | - | - | - | - |
| 1777609407 | 22.78° C | 52% | 1023.4 hPa | - | - | - | - |
| 1777608807 | 22.78° C | 52% | 1023.4 hPa | - | - | - | - |
| 1777608206 | 22.78° C | 52% | 1023.5 hPa | - | - | - | - |
| 1777607606 | 23.33° C | 52% | 1023.4 hPa | - | - | - | - |
| 1777607006 | 23.33° C | 52% | 1023.5 hPa | - | - | - | - |
* Rain since midnight (hover to see other rain measurements)
** Current wind speed in m/s (hover to see current wind gust speed)